Dewpoint
56 57 57 55 56 57 58 59 58 57 58 58 60 62 60 58 56 55 53 54 52 51 48 46 43 43 37 39 36 40 39 42 44 45 45 44 44 42 37 34 32 36 38 36 30 33 34 33 31 34 35 33 32 31 32 28 29 31 30 28 28 28 28 28 26 25 26 28 28 25 25 26 24 24 24 24 25 24 30 27 28 29 29 30 30
55 56 57 59 58 58 59 60 59 58 58 59 60 60 58 57 55 53 53 52 50 46 44 46 43 40 37 35 38 35 37 37 42 45 42 42 43 37 39 34 37 35 37 32 30 33 35 34 31 34 35 31 30 27 28 29 28 27 26 26 26 28 28 27 26 27 25 26 26 25 25 25 24 25 25 25 25 28 25 26 27 28 28 29 30
54 56 58 59 60 60 60 60 59 60 61 63 60 58 56 55 53 52 51 50 49 47 45 43 41 38 36 40 35 38 38 40 45 43 42 40 36 41 39 40 39 36 33 32 27 32 33 34 33 34 35 32 31 30 30 29 29 26 24 25 27 27 25 27 29 27 26 26 26 25 26 26 26 24 25 26 27 25 25 26 27 27 29 29 31
53 55 57 58 59 60 60 61 60 57 58 62 59 57 55 54 52 49 48 49 45 49 45 38 38 40 38 34 34 35 41 44 43 41 36 38 37 35 35 38 36 35 33 30 30 31 31 33 33 35 34 32 31 30 30 30 30 28 26 26 26 25 27 30 30 30 28 27 27 26 26 26 25 25 25 26 25 26 26 27 27 27 28 30 31
54 54 55 57 58 60 61 60 61 62 62 60 58 56 54 53 51 46 48 47 44 44 43 40 39 39 41 33 34 38 40 40 40 42 41 43 40 39 36 35 37 34 35 33 32 32 32 32 31 34 34 33 33 31 29 31 29 28 25 25 25 27 29 30 30 29 28 27 27 27 26 25 25 25 26 25 26 26 26 27 27 28 28 30 32
54 54 55 57 57 59 61 61 61 61 61 58 56 55 53 51 49 48 44 44 46 43 45 42 33 30 30 32 33 32 33 36 35 35 37 41 43 42 42 39 36 33 32 33 32 32 32 30 31 34 33 34 34 33 32 31 30 27 25 24 24 26 29 30 30 29 28 27 25 24 25 26 25 26 25 26 27 26 26 26 27 28 29 29 30
54 54 55 55 56 57 59 60 61 61 59 57 55 53 51 50 47 44 44 44 43 42 38 37 40 32 33 35 33 32 31 31 33 34 34 36 38 37 39 40 35 39 32 30 30 31 30 29 32 35 34 35 35 32 32 32 31 26 26 24 24 27 28 29 29 28 28 26 25 24 24 26 26 25 24 26 25 26 26 26 27 27 29 30 31
54 54 56 57 57 57 58 60 63 61 58 55 53 52 50 49 48 47 45 44 40 36 34 35 40 33 36 34 34 34 29 28 30 30 31 32 35 38 38 40 35 36 37 32 32 31 31 31 31 33 33 36 37 33 32 31 28 25 24 25 25 26 28 29 29 28 27 27 25 25 25 25 25 25 26 26 26 26 27 27 27 27 28 30 30
54 53 55 57 57 57 60 62 62 58 55 54 52 51 50 49 47 46 46 44 42 36 37 35 34 34 33 37 32 31 32 32 33 33 34 30 31 35 39 35 35 36 34 31 31 30 29 30 30 31 34 34 33 33 32 29 27 23 24 25 26 26 27 28 30 29 28 26 25 26 25 25 25 25 25 25 26 26 27 28 28 28 28 29 30
53 53 54 55 57 55 60 60 58 56 54 52 51 50 48 47 46 45 42 41 41 41 37 38 34 35 35 34 34 35 34 34 35 34 37 33 32 34 37 39 35 36 35 34 33 34 32 30 31 33 34 33 32 34 32 29 27 24 24 25 26 27 28 29 30 29 26 24 24 25 25 24 24 25 25 26 27 28 28 28 28 28 28 31 32
53 53 52 53 55 58 59 58 57 54 53 51 50 48 46 47 45 42 43 42 42 41 40 36 38 37 36 35 35 34 33 32 36 35 36 35 34 33 35 38 36 37 36 34 33 31 33 29 31 30 33 31 30 34 31 27 26 26 28 29 30 30 30 31 31 27 26 25 25 25 24 24 25 26 26 26 27 28 28 28 29 29 30 31 30
52 53 52 55 55 59 59 55 54 52 51 49 48 47 47 45 44 43 43 42 43 44 43 38 39 41 39 36 35 33 32 36 36 33 36 34 34 34 34 37 38 40 39 36 34 34 34 34 30 28 31 30 32 29 26 26 25 26 27 29 32 34 36 34 31 27 28 25 24 25 25 25 25 26 27 27 28 29 29 29 29 30 31 31 32
52 52 54 53 56 60 56 54 53 51 50 48 48 47 45 44 43 43 42 43 43 41 40 41 41 41 41 38 36 33 31 33 36 32 35 35 35 34 31 36 39 39 40 39 38 37 37 36 35 31 26 31 33 26 22 18 22 25 27 29 31 32 31 32 34 34 26 25 26 26 26 26 27 28 29 29 31 29 29 29 30 31 33 33 33
52 52 55 55 59 57 55 53 51 51 50 48 47 45 44 44 45 45 44 43 43 42 42 42 41 41 41 39 37 35 31 34 34 33 34 34 35 35 30 35 38 38 38 39 39 38 38 38 35 33 32 33 31 26 21 19 19 20 23 25 26 28 30 31 30 31 26 26 26 27 28 29 29 30 31 31 31 30 30 30 32 32 33 34 35
51 54 56 57 57 55 53 52 51 50 48 47 47 45 45 46 44 44 43 42 42 41 41 41 41 42 41 39 37 32 31 34 33 31 33 33 33 35 33 36 38 39 40 40 39 39 38 38 36 35 33 34 30 28 24 24 23 23 24 25 25 26 27 25 23 23 25 26 26 27 28 29 30 30 31 31 31 31 32 32 33 34 35 36 35
50 55 57 57 55 53 52 51 50 48 47 46 45 45 46 45 44 44 44 43 42 42 43 42 41 41 41 40 36 30 29 33 34 31 32 32 33 35 35 37 39 38 39 39 38 39 38 38 37 36 34 33 31 30 29 28 24 23 24 24 25 27 27 26 28 29 29 26 26 27 28 30 34 34 35 34 34 34 35 35 34 34 33 32 32
52 57 57 55 54 52 51 50 49 48 47 46 45 46 46 45 44 44 42 42 42 42 41 40 41 41 41 40 39 34 28 31 34 30 33 31 33 33 36 37 37 38 38 37 38 36 39 35 36 35 32 30 30 30 29 30 26 24 24 25 26 27 25 22 26 28 29 30 31 33 33 34 35 35 36 36 37 37 36 35 31 31 31 32 33
53 57 56 54 53 52 51 49 48 47 46 45 46 46 46 45 44 44 42 42 41 40 39 39 40 40 41 41 41 37 31 29 32 29 30 31 32 33 34 36 35 35 34 36 38 38 37 36 33 30 29 26 27 30 29 29 26 25 25 25 26 25 21 21 22 24 29 31 32 33 34 34 34 34 34 34 34 39 36 31 30 31 31 33 32
54 56 55 53 52 51 50 49 48 47 45 46 47 46 45 45 44 45 43 41 41 39 37 38 39 40 41 42 41 38 31 27 33 32 28 33 30 31 32 33 32 32 30 32 36 37 37 35 32 29 26 25 30 30 30 29 28 26 26 26 27 23 21 21 21 22 24 27 27 26 27 31 31 30 32 35 35 36 31 30 30 32 32 33 33
53 55 54 53 52 51 51 50 49 47 46 47 47 46 46 45 44 43 42 38 37 36 36 37 38 38 41 39 34 40 34 30 30 33 30 33 30 31 33 35 29 27 29 30 32 35 36 33 31 29 30 30 29 30 31 32 29 28 28 27 27 24 22 22 26 26 27 27 23 24 25 27 28 29 28 29 32 33 31 31 32 33 32 31 33
55 54 53 52 51 50 49 49 49 48 47 47 47 47 45 44 44 43 41 39 37 39 40 41 40 40 37 36 34 40 39 34 32 31 31 30 32 30 31 33 27 25 26 30 31 31 30 32 32 32 30 29 29 30 31 32 32 30 29 28 28 29 30 26 26 32 25 24 24 23 23 24 26 25 26 26 29 29 30 31 33 32 31 31 33
54 53 52 50 50 50 50 50 50 49 48 48 47 46 45 44 43 42 40 40 40 40 41 40 40 39 39 39 40 39 42 40 32 33 33 30 29 27 31 30 27 26 30 31 31 32 33 31 31 34 30 30 29 30 31 31 32 31 31 31 32 32 30 30 28 24 20 21 19 20 21 22 22 24 26 26 27 30 29 29 31 31 31 32 33
53 52 51 50 51 50 51 51 50 48 48 48 46 45 45 43 43 42 41 41 40 40 40 39 39 38 38 39 40 38 35 39 38 34 33 31 32 32 31 28 31 32 32 30 32 33 33 33 31 30 30 30 30 30 31 32 33 32 32 32 32 31 33 29 26 21 20 20 21 21 21 21 21 21 24 24 25 27 27 29 30 29 31 34 34
52 51 51 50 51 50 49 49 49 49 48 47 46 45 44 43 41 40 42 40 39 38 38 37 37 36 36 36 37 36 32 32 37 38 33 29 30 29 32 32 32 31 33 31 32 32 31 32 30 29 29 30 30 30 31 33 32 32 32 32 32 33 32 25 19 21 22 20 19 19 19 19 19 20 23 25 27 27 28 29 29 30 31 32 31
53 52 51 50 50 48 48 48 48 47 47 47 45 44 44 43 40 41 41 40 38 37 35 35 36 36 35 35 35 34 36 33 30 37 34 30 30 29 30 31 32 33 30 32 33 33 32 32 32 31 30 30 31 31 32 33 33 34 33 31 35 30 25 22 20 20 18 18 19 20 18 19 19 21 23 25 27 27 27 29 30 31 31 31 31
51 50 50 50 49 48 48 47 47 47 47 45 46 44 43 41 40 40 39 37 36 36 34 32 32 32 34 34 34 33 35 35 31 33 35 34 30 30 31 30 33 35 34 32 33 32 32 32 32 33 33 32 33 33 33 33 33 32 33 34 25 22 23 21 19 20 18 17 19 19 17 17 18 20 24 25 25 24 26 28 28 29 30 29 29
51 51 51 50 50 49 49 47 47 47 47 45 44 43 43 41 40 39 37 35 35 34 33 32 31 29 33 33 34 34 33 33 34 32 30 30 30 32 33 32 35 36 33 32 34 36 36 31 28 29 30 32 33 33 33 32 33 28 24 24 24 22 23 22 21 21 20 18 18 17 17 19 19 20 21 22 24 25 26 29 28 29 29 29 28
51 51 51 50 49 49 48 46 47 45 45 45 43 43 42 40 39 39 35 34 34 34 33 33 30 30 31 32 33 32 31 31 31 35 33 34 35 34 33 33 34 34 33 31 25 26 26 30 30 32 33 34 33 31 27 29 26 26 24 23 22 24 25 25 24 21 20 19 17 18 19 19 16 17 20 21 22 24 26 28 29 28 29 28 27
52 52 51 49 49 47 47 46 46 45 45 44 44 43 41 40 40 39 39 36 35 35 35 35 34 32 29 30 32 32 29 29 31 35 38 34 34 30 31 33 28 32 30 29 25 26 26 28 31 33 30 29 26 27 26 26 26 25 27 26 23 22 21 19 20 18 19 19 18 18 18 16 16 17 18 19 22 23 24 27 28 28 28 28 27
52 51 49 48 47 46 47 45 45 44 44 43 43 44 36 40 46 41 37 38 35 36 39 41 43 34 33 39 39 33 30 36 29 30 29 29 30 30 29 31 30 27 29 30 29 27 27 29 31 27 29 25 25 25 24 24 24 22 23 25 24 22 21 21 19 17 19 19 17 17 17 16 14 16 18 19 21 23 25 28 26 27 27 26 27
50 49 48 47 45 46 46 45 45 44 43 43 43 43 40 38 33 34 37 34 34 33 33 33 33 33 46 37 33 32 30 30 31 29 29 30 31 30 30 28 29 29 28 25 26 26 26 27 27 26 26 25 24 24 25 24 24 23 23 24 23 24 22 22 19 19 18 17 18 18 17 15 15 17 17 19 22 22 24 26 25 26 26 27 26
50 49 48 47 46 45 45 45 45 44 42 42 41 42 39 39 36 33 34 32 33 33 32 32 32 34 35 35 34 29 30 30 30 31 30 30 30 31 30 29 30 30 29 28 25 24 24 25 26 26 26 25 25 24 24 24 24 21 23 23 23 23 21 21 22 18 16 16 15 18 16 15 16 17 18 19 22 22 23 24 24 24 25 26 27
51 50 48 48 46 44 45 45 44 45 44 42 42 41 39 37 35 34 31 34 33 30 32 33 33 33 34 33 32 30 28 30 31 31 31 34 33 32 32 31 30 30 30 25 25 24 25 28 26 26 25 26 25 23 24 26 24 23 24 23 23 23 22 25 23 20 18 17 18 16 16 16 17 18 20 20 20 21 22 23 24 24 25 25 26
51 50 49 48 47 45 45 46 44 44 43 42 41 40 39 39 36 35 33 30 29 28 31 33 32 33 33 33 33 31 31 31 31 30 31 33 33 33 31 29 31 32 28 25 24 26 25 25 25 26 25 25 26 26 23 22 22 23 23 27 26 23 25 24 17 17 19 17 15 16 17 16 19 17 18 18 21 22 21 23 23 23 24 25 26
50 46 44 44 47 46 45 45 44 44 43 43 41 40 41 40 38 36 33 31 31 29 28 27 30 31 30 32 33 32 31 31 31 31 35 31 34 32 31 25 25 25 29 28 24 23 24 26 25 26 26 22 22 21 21 24 24 25 25 24 23 22 22 19 19 18 17 16 16 16 17 19 18 20 21 20 21 21 22 23 23 23 24 26 26
51 49 51 47 48 46 45 45 45 44 43 43 43 40 39 39 37 36 35 33 32 30 31 28 26 28 31 31 33 33 32 31 31 31 30 32 33 31 25 24 21 22 24 26 24 22 25 26 25 25 25 24 22 22 23 25 26 25 25 24 24 22 21 20 19 17 20 18 17 17 18 17 19 20 19 21 22 21 20 22 23 24 26 25 27
50 49 50 48 48 47 46 45 46 45 40 42 41 41 40 39 37 36 35 34 33 32 30 29 29 30 29 29 34 33 32 31 32 32 31 32 33 27 22 20 20 20 22 25 27 27 28 27 24 24 25 23 23 24 25 26 27 27 26 25 24 23 21 20 21 21 20 18 16 17 18 17 18 20 21 22 23 21 21 22 23 25 26 27 29
52 50 49 49 48 49 48 46 45 40 42 42 42 41 39 39 38 36 35 35 33 32 31 29 31 28 23 23 35 32 32 33 33 32 32 32 31 26 23 23 21 21 23 21 23 23 22 23 27 26 24 25 24 27 25 27 26 25 24 25 24 23 23 22 22 23 22 19 19 18 21 21 20 21 23 23 23 22 22 23 22 23 25 27 27
53 46 43 42 42 47 47 45 45 43 43 42 41 39 40 38 38 38 35 35 34 33 31 30 29 28 25 23 30 29 30 29 29 28 28 27 27 25 23 22 22 21 22 21 22 22 22 24 25 24 25 25 24 25 24 25 26 25 25 24 24 23 22 20 20 20 20 21 21 21 21 22 22 22 23 24 23 21 21 22 23 24 24 26 27
51 51 47 39 44 44 45 44 44 44 41 42 42 42 40 39 38 37 35 35 35 33 32 32 30 30 28 24 27 26 25 25 25 24 25 26 26 26 24 23 22 22 21 21 21 22 24 23 26 23 24 23 23 24 24 25 26 26 24 23 21 22 21 20 19 20 20 20 21 20 21 22 23 23 23 23 23 22 22 23 24 25 25 26 27
51 52 47 42 42 45 44 45 44 44 44 42 41 42 41 39 38 36 36 35 34 34 34 33 32 31 30 28 30 27 24 23 23 23 23 25 25 25 25 24 23 22 22 21 22 22 23 24 25 25 26 24 23 23 23 24 25 24 24 22 22 20 20 21 21 20 20 20 19 19 20 22 23 22 22 23 25 24 24 24 24 24 25 26 28
56 60 58 53 46 46 45 44 45 44 43 43 42 42 41 39 39 37 36 35 34 34 34 34 33 31 32 32 31 30 30 25 24 25 25 25 26 26 26 25 24 23 21 21 22 25 24 24 26 25 24 26 24 23 23 24 24 24 24 22 22 20 19 19 18 18 19 18 18 20 21 22 23 23 24 26 23 23 23 23 23 23 24 26 27
50 50 54 56 55 51 46 45 46 46 44 44 42 39 39 40 40 38 37 36 35 34 34 34 34 33 33 31 31 30 35 26 27 26 26 26 26 26 26 25 25 24 23 23 23 25 24 25 25 24 24 23 24 23 22 22 23 23 22 24 22 22 21 19 18 17 18 18 19 20 22 22 22 21 23 23 23 23 22 22 24 23 24 25 26
49 48 48 48 51 48 47 47 46 47 49 46 43 44 42 40 39 39 37 37 37 35 34 34 34 33 34 30 31 31 35 35 32 28 27 27 27 26 25 26 25 25 24 24 25 25 26 25 26 25 25 24 25 27 24 24 24 23 22 22 22 22 20 19 18 18 18 17 19 21 20 20 22 23 24 23 22 23 23 23 24 23 25 25 25
46 47 47 47 48 49 49 48 48 48 44 44 44 43 40 41 40 39 38 37 37 36 35 34 33 34 33 32 31 30 31 32 33 29 28 27 26 26 25 25 26 27 26 26 25 27 26 26 26 26 25 23 25 25 25 26 27 24 23 22 22 21 21 20 21 20 19 19 19 19 19 19 21 24 23 22 23 22 22 23 23 25 25 25 25
40 42 44 46 46 47 49 49 48 50 48 45 45 47 44 42 41 40 39 38 37 36 35 34 34 34 33 32 31 30 31 33 38 35 33 28 27 26 26 25 26 28 27 26 27 28 26 27 26 25 25 24 24 23 24 26 26 26 27 26 24 23 22 22 21 20 20 20 20 19 19 20 22 24 24 22 23 22 22 23 23 24 24 24 25
40 39 41 39 43 44 45 47 46 47 46 46 45 44 45 43 42 40 38 38 41 38 36 35 35 34 34 34 32 31 31 34 34 35 28 27 27 27 27 28 27 28 27 27 27 26 27 26 25 25 25 24 24 25 23 23 23 23 25 23 22 23 22 18 18 19 20 21 20 18 19 21 23 23 24 23 23 22 22 23 23 24 24 25 23
38 37 39 40 43 43 45 45 47 43 46 45 44 44 43 45 44 41 40 39 40 38 39 41 40 44 38 35 33 32 32 33 35 38 33 27 26 27 28 29 29 27 27 27 27 27 26 25 25 25 25 25 24 23 24 23 23 22 22 21 20 19 17 16 16 19 21 19 18 19 22 21 22 22 23 23 23 21 21 22 24 24 24 24 23
38 40 41 42 43 44 44 44 44 45 46 46 45 44 44 44 42 42 44 45 44 43 42 43 44 43 42 38 33 33 33 33 34 33 31 33 30 27 28 30 30 29 27 26 26 27 26 25 25 25 25 24 24 23 23 24 22 21 21 19 19 18 17 15 15 17 13 17 17 20 21 21 23 24 22 23 20 20 22 22 22 24 24 23 22
40 40 42 41 42 42 44 44 45 45 45 46 46 47 45 45 44 43 42 43 44 43 41 43 43 42 45 41 35 33 33 33 32 32 31 31 31 27 27 30 30 28 27 27 26 26 26 26 26 25 25 25 24 24 24 24 23 21 21 17 18 17 16 17 16 13 11 16 19 19 19 22 24 23 22 22 22 21 21 22 23 25 23 21 21
40 42 41 40 40 40 41 43 44 44 44 45 45 45 45 45 43 43 43 42 42 42 41 40 40 39 38 37 35 33 33 33 33 34 37 38 39 36 35 30 30 29 28 27 26 26 26 26 25 24 24 25 24 23 23 23 23 22 22 19 18 17 16 15 13 15 17 17 17 20 20 23 25 24 22 21 19 19 21 23 22 22 21 21 20